Regional Weather Roundup
Issued by NWS Sioux Falls, SD

Home | Current Version | Previous Version | Text Only | Print | Product List | Glossary On
Versions: 1 2 3 4 5 6 7 8 9 10 11 12 13 14 15 16 17 18 19 20 21 22 23 24 25 26 27 28 29 30 31 32 33 34 35 36 37 38 39 40 41 42 43 44 45 46 47 48 49 50
775
ASUS43 KFSD 221902
RWRFSD

WEATHER ROUNDUP FOR SE SOUTH DAKOTA/SW MINNESOTA/NW IOWA
NATIONAL WEATHER SERVICE SIOUX FALLS SD
200 PM CDT TUE AUG 22 2017

NOTE: "FAIR" INDICATES FEW OR NO CLOUDS BELOW 12,000 FEET WITH NO
SIGNIFICANT WEATHER AND OR OBSTRUCTIONS TO VISIBILITY.


SDZ038>040-050-052>070-222000-
SOUTHEAST SOUTH DAKOTA

CITY           SKY/WX    TMP DP  RH WIND       PRES   REMARKS
BROOKINGS      SUNNY     70  47  43 NW14      30.18S
CHAMBERLAIN    SUNNY     76  50  39 SW8       30.21F
HURON          SUNNY     75  48  38 NW7       30.17F
MADISON        FAIR      68  46  45 NW16G22   30.19S
MITCHELL       SUNNY     76  44  32 N10       30.19F
SIOUX FALLS    MOSUNNY   73  51  46 N14G22    30.18S
WINNER         FAIR      76  49  38 S6        30.23F
YANKTON        SUNNY     74  47  38 N14       30.20F
$$

MNZ071-072-080-081-089-090-097-098-222000-
SOUTHWEST MINNESOTA

CITY           SKY/WX    TMP DP  RH WIND       PRES   REMARKS
FAIRMONT       SUNNY     71  51  49 NW15G21   30.12F
JACKSON        SUNNY     70  50  49 NW15      30.15S
LUVERNE        SUNNY     70  43  37 NW9G18    30.17F
MARSHALL       SUNNY     71  48  43 NW18G26   30.13S
MONTEVIDEO     SUNNY     75  50  41 N17G23    30.12S
PIPESTONE      SUNNY     72  45  37 N14G20    30.17S
REDWOOD FALLS  MOSUNNY   73  47  39 NW12G23   30.11S
TRACY          SUNNY     71  51  49 NW16G22   30.14F
WINDOM         SUNNY     72  46  40 W14G21    30.14S
WORTHINGTON    SUNNY     71  48  43 NW15G23   30.16
$$

IAZ001>003-012>014-020>022-031-032-NEZ013-014-SDZ071-222000-
NORTHWEST IOWA

CITY           SKY/WX    TMP DP  RH WIND       PRES   REMARKS
CHEROKEE       SUNNY     73  49  44 N13G18    30.16S
DENISON        SUNNY     72  52  49 NW12G18   30.18S
ESTHERVILLE    SUNNY     71  51  49 NW15G23   30.13F
ORANGE CITY    SUNNY     73  52  46 NW13G18   30.18S
SHELDON        SUNNY     72  48  43 NW14G22   30.15F
SIOUX CITY     SUNNY     73  52  47 N12       30.17F
SPENCER        SUNNY     74  49  41 NW16G23   30.15S
STORM LAKE       N/A     70  50  49 NW12G18   30.16S
$$

ABBREVIATIONS USED IN REMARKS
   TC - TEMPERATURE IN CELSIUS
  WCI - WIND CHILL INDEX
   HX - HEAT INDEX
  VSB - VISIBILITY





USA.gov is the U.S. government's official web portal to all federal, state and local government web resources and services.